Location: Unspecified
(0.0000°N, 0.0000°E)
Time: 16:11:55
(UTC+00:00)

Transit 2A Rocket - All Passes

Search period start: 30 August 2014 00:00
Search period end: 09 September 2014 00:00
Orbit: 594 x 914 km, 66.7° (Epoch: 29 August)

Date Brightness Start Highest point End Pass type
(mag) Time Alt. Az. Time Alt. Az. Time Alt. Az.
30 Aug - 04:03:31 10° SE 04:05:08 12° ESE 04:06:43 10° E visible
30 Aug - 05:43:23 10° SW 05:47:36 32° WNW 05:51:33 10° N daylight
30 Aug - 16:29:24 10° N 16:34:30 40° ENE 16:39:59 10° SE daylight
30 Aug - 18:13:42 10° WNW 18:17:03 16° WSW 18:20:32 10° SSW daylight
31 Aug - 05:01:15 10° SSW 05:06:03 74° WNW 05:10:28 10° NNE visible
31 Aug - 15:48:58 10° NNE 15:52:57 20° ENE 15:57:07 10° ESE daylight
31 Aug - 17:30:26 10° NW 17:35:19 31° WSW 17:40:31 10° S daylight
01 Sep - 04:19:48 10° S 04:24:26 47° ESE 04:28:42 10° NE visible
01 Sep - 16:48:10 10° NNW 16:53:39 61° WSW 16:59:32 10° S daylight
02 Sep - 03:39:07 10° SSE 03:42:44 21° ESE 03:46:10 10° ENE visible
02 Sep - 05:22:02 10° WSW 05:25:03 17° WNW 05:27:56 10° NNW visible
02 Sep - 16:06:32 10° NNW 16:12:01 68° ENE 16:17:57 10° SSE daylight
03 Sep - 04:39:07 10° SW 04:43:30 38° WNW 04:47:36 10° N visible
03 Sep - 15:25:28 10° N 15:30:27 34° ENE 15:35:45 10° SE daylight
03 Sep - 17:09:04 10° WNW 17:12:57 19° WSW 17:17:00 10° SSW daylight
04 Sep - 03:57:09 10° SSW 04:01:56 90° WNW 04:06:21 10° NNE visible
04 Sep - 14:45:18 10° NNE 14:48:53 17° ENE 14:52:36 10° ESE daylight
04 Sep - 16:26:06 10° NW 16:31:14 36° WSW 16:36:41 10° S daylight
05 Sep - 03:15:51 10° S 03:20:18 38° ESE 03:24:26 10° NE visible
05 Sep - 15:44:00 10° NNW 15:49:34 72° WSW 15:55:33 10° SSE daylight
06 Sep - 02:35:26 10° SSE 02:38:36 18° ESE 02:41:37 10° ENE night (unlit)
06 Sep - 04:17:32 10° WSW 04:20:57 20° WNW 04:24:12 10° NNW visible
06 Sep - 15:02:29 10° N 15:07:57 58° ENE 15:13:49 10° SSE daylight
06 Sep - 16:49:23 10° W 16:50:36 11° WSW 16:51:50 10° SW daylight
07 Sep - 03:34:53 10° SW 03:39:24 46° WNW 03:43:36 10° N visible
07 Sep - 14:21:35 10° NNE 14:26:23 30° ENE 14:31:27 10° SE daylight
07 Sep - 16:04:32 10° WNW 16:08:51 22° WSW 16:13:21 10° SSW daylight
08 Sep - 02:53:05 10° SSW 02:57:49 75° ESE 03:02:11 10° NNE night (unlit)
08 Sep - 13:41:45 10° NE 13:44:48 15° ENE 13:47:57 10° ESE daylight
08 Sep - 15:21:49 10° NW 15:27:08 43° WSW 15:32:48 10° S daylight
